| time (UTC) | temp C | wind direction | speed KPH | gust KPH | rain 1hr cm | rain 24hr cm | rain mn cm | humidity % | barometer mb |
| 20260502130510 | 5 | 244 | 3.2 | 1.6 | 0.00 | 0.00 | 0.00 | 77 | 1018.0 |
| 20260502123010 | 5 | 23 | 0.0 | 0.0 | 0.00 | 0.00 | 0.00 | 78 | 1018.1 |
| 20260502122510 | 5 | 297 | 0.0 | 0.0 | 0.00 | 0.00 | 0.00 | 73 | 1018.1 |
| 20260502122010 | 5 | 326 | 1.6 | 0.0 | 0.00 | 0.00 | 0.00 | 61 | 1018.1 |
| 20260502121010 | 5 | 300 | 0.0 | 0.0 | 0.00 | 0.00 | 0.00 | 41 | 1018.1 |
| 20260502120510 | 5 | 301 | 0.0 | 0.0 | 0.00 | 0.00 | 0.00 | 30 | 1018.0 |
| 20260502115010 | 3 | 301 | 0.0 | 0.0 | 0.00 | 0.00 | 0.00 | 26 | 1017.9 |
| 20260502114010 | 2 | 300 | 0.0 | 0.0 | 0.00 | 0.00 | 0.00 | 25 | 1017.8 |
| 20260502113510 | 1 | 300 | 0.0 | 0.0 | 0.00 | 0.00 | 0.00 | 25 | 1017.7 |
| 20260502112510 | 1 | 301 | 0.0 | 0.0 | 0.00 | 0.00 | 0.00 | 28 | 1017.6 |
| 20260502112010 | 0 | 301 | 0.0 | 0.0 | 0.00 | 0.00 | 0.00 | 30 | 1017.6 |
| 20260502111510 | 0 | 300 | 0.0 | 0.0 | 0.00 | 0.00 | 0.00 | 32 | 1017.5 |
| 20260502111010 | 0 | 300 | 0.0 | 0.0 | 0.00 | 0.00 | 0.00 | 34 | 1017.6 |
| 20260502105510 | 0 | 299 | 0.0 | 0.0 | 0.00 | 0.00 | 0.00 | 37 | 1017.4 |
| 20260502105010 | 0 | 300 | 0.0 | 0.0 | 0.00 | 0.00 | 0.00 | 39 | 1017.3 |
| 20260502104510 | 0 | 299 | 0.0 | 0.0 | 0.00 | 0.00 | 0.00 | 40 | 1017.3 |
| 20260502104010 | 0 | 299 | 0.0 | 0.0 | 0.00 | 0.00 | 0.00 | 39 | 1017.3 |
| 20260502103510 | 0 | 300 | 0.0 | 0.0 | 0.00 | 0.00 | 0.00 | 40 | 1017.4 |
| 20260502103010 | 0 | 300 | 0.0 | 0.0 | 0.00 | 0.00 | 0.00 | 41 | 1017.4 |
| 20260502102510 | 0 | 300 | 0.0 | 0.0 | 0.00 | 0.00 | 0.00 | 42 | 1017.4 |
| 20260502102010 | 0 | 299 | 0.0 | 0.0 | 0.00 | 0.00 | 0.00 | 43 | 1017.4 |
| 20260502101510 | 0 | 299 | 0.0 | 0.0 | 0.00 | 0.00 | 0.00 | 44 | 1017.3 |
| 20260502101010 | 0 | 300 | 0.0 | 0.0 | 0.00 | 0.00 | 0.00 | 46 | 1017.4 |
| 20260502100510 | 0 | 300 | 0.0 | 0.0 | 0.00 | 0.00 | 0.00 | 48 | 1017.3 |
| 20260502091010 | 0 | 299 | 0.0 | 0.0 | 0.00 | 0.00 | 0.00 | 46 | 1017.2 |
| 20260502090510 | 0 | 299 | 0.0 | 0.0 | 0.00 | 0.00 | 0.00 | 47 | 1017.2 |
| 20260502071510 | 0 | 300 | 0.0 | 0.0 | 0.00 | 0.15 | 0.00 | 63 | 1016.7 |
| 20260502071011 | 0 | 299 | 0.0 | 0.0 | 0.00 | 0.15 | 0.00 | 65 | 1016.7 |
| 20260502070510 | 0 | 300 | 0.0 | 0.0 | 0.00 | 0.15 | 0.00 | 67 | 1016.8 |
| 20260502070010 | 0 | 300 | 0.0 | 0.0 | 0.00 | 0.15 | 0.00 | 66 | 1016.8 |
| 20260502065510 | 0 | 299 | 0.0 | 0.0 | 0.00 | 0.30 | 0.00 | 66 | 1016.8 |
| 20260502065011 | 0 | 300 | 0.0 | 0.0 | 0.00 | 0.30 | 0.00 | 68 | 1016.9 |
| 20260502064510 | 0 | 299 | 0.0 | 0.0 | 0.00 | 0.30 | 0.00 | 70 | 1016.9 |
| 20260502064011 | 0 | 300 | 0.0 | 0.0 | 0.00 | 0.30 | 0.00 | 72 | 1016.9 |
| 20260502063510 | 0 | 299 | 0.0 | 0.0 | 0.00 | 0.30 | 0.00 | 72 | 1016.8 |
| 20260502063010 | 0 | 300 | 0.0 | 0.0 | 0.00 | 0.30 | 0.00 | 73 | 1016.9 |
| 20260502062511 | 0 | 300 | 0.0 | 0.0 | 0.00 | 0.30 | 0.00 | 74 | 1016.9 |
| 20260502062011 | 0 | 299 | 0.0 | 0.0 | 0.00 | 0.30 | 0.00 | 75 | 1016.9 |
| 20260502061510 | 0 | 299 | 0.0 | 0.0 | 0.00 | 0.30 | 0.00 | 75 | 1016.9 |
| 20260502061010 | 0 | 300 | 0.0 | 0.0 | 0.00 | 0.30 | 0.00 | 76 | 1017.0 |
| 20260502060510 | 0 | 300 | 0.0 | 0.0 | 0.00 | 0.30 | 0.00 | 77 | 1017.1 |
| 20260502060010 | 0 | 300 | 0.0 | 0.0 | 0.00 | 0.30 | 0.00 | 78 | 1017.1 |
| 20260502055510 | 0 | 300 | 0.0 | 0.0 | 0.00 | 0.51 | 0.00 | 79 | 1017.2 |
| 20260502055011 | 0 | 300 | 0.0 | 0.0 | 0.00 | 0.51 | 0.00 | 80 | 1017.2 |
| 20260502054511 | 0 | 299 | 0.0 | 0.0 | 0.00 | 0.51 | 0.00 | 80 | 1017.2 |
| 20260502054011 | 0 | 300 | 0.0 | 0.0 | 0.00 | 0.51 | 0.00 | 81 | 1017.3 |
| 20260502053511 | 0 | 300 | 0.0 | 0.0 | 0.00 | 0.51 | 0.00 | 81 | 1017.3 |
| 20260502053010 | 0 | 300 | 0.0 | 0.0 | 0.00 | 0.51 | 0.00 | 81 | 1017.3 |
| 20260502052511 | 0 | 300 | 0.0 | 0.0 | 0.00 | 0.51 | 0.00 | 81 | 1017.3 |
| 20260502052010 | 0 | 300 | 0.0 | 0.0 | 0.00 | 0.51 | 0.00 | 82 | 1017.3 |
| 20260502051511 | 0 | 300 | 0.0 | 0.0 | 0.00 | 0.51 | 0.00 | 82 | 1017.3 |
| 20260502051011 | 0 | 300 | 0.0 | 0.0 | 0.00 | 0.51 | 0.00 | 82 | 1017.3 |
| 20260502050510 | 0 | 300 | 0.0 | 0.0 | 0.00 | 0.51 | 0.00 | 82 | 1017.2 |
| 20260502050011 | 0 | 299 | 0.0 | 0.0 | 0.00 | 0.51 | 0.00 | 82 | 1017.3 |
| 20260502045511 | 0 | 300 | 0.0 | 0.0 | 0.00 | 0.76 | 0.00 | 82 | 1017.3 |
| 20260502045011 | 0 | 300 | 0.0 | 0.0 | 0.00 | 0.76 | 0.00 | 82 | 1017.3 |
| 20260502044010 | 0 | 300 | 0.0 | 0.0 | 0.00 | 0.76 | 0.00 | 82 | 1017.3 |
| 20260502043511 | 0 | 300 | 0.0 | 0.0 | 0.00 | 0.76 | 0.00 | 82 | 1017.3 |
| 20260502043011 | 0 | 300 | 0.0 | 0.0 | 0.00 | 0.76 | 0.00 | 82 | 1017.2 |
| 20260502042011 | 0 | 300 | 0.0 | 0.0 | 0.00 | 0.76 | 0.00 | 82 | 1017.2 |
| 20260502041510 | 0 | 300 | 0.0 | 0.0 | 0.00 | 0.76 | 0.00 | 81 | 1017.2 |
| 20260502041010 | 0 | 299 | 0.0 | 0.0 | 0.00 | 0.76 | 0.00 | 81 | 1017.2 |
| 20260502040510 | 0 | 300 | 0.0 | 0.0 | 0.00 | 0.76 | 0.00 | 81 | 1017.2 |
| 20260502035511 | 0 | 300 | 0.0 | 0.0 | 0.00 | 0.94 | 0.76 | 81 | 1017.2 |
| 20260502035011 | 0 | 300 | 0.0 | 0.0 | 0.00 | 0.94 | 0.76 | 81 | 1017.2 |
| 20260502034510 | 0 | 300 | 1.6 | 0.0 | 0.00 | 0.94 | 0.76 | 81 | 1017.1 |
| 20260502033511 | 0 | 301 | 0.0 | 0.0 | 0.00 | 0.94 | 0.76 | 81 | 1017.0 |
| 20260502033011 | 0 | 299 | 0.0 | 0.0 | 0.00 | 0.94 | 0.76 | 81 | 1017.0 |
| 20260502032011 | 0 | 300 | 0.0 | 0.0 | 0.00 | 0.94 | 0.76 | 80 | 1016.9 |
| 20260502031011 | 0 | 301 | 0.0 | 0.0 | 0.00 | 0.94 | 0.76 | 80 | 1016.8 |
| 20260502030511 | 1 | 299 | 0.0 | 0.0 | 0.00 | 0.94 | 0.76 | 80 | 1016.9 |
| 20260502030011 | 1 | 299 | 0.0 | 0.0 | 0.00 | 0.94 | 0.76 | 80 | 1016.8 |
| 20260502025510 | 1 | 300 | 0.0 | 0.0 | 0.00 | 1.09 | 0.76 | 80 | 1016.7 |
| 20260502025010 | 1 | 301 | 0.0 | 0.0 | 0.00 | 1.09 | 0.76 | 80 | 1016.6 |
| 20260502024511 | 1 | 300 | 0.0 | 0.0 | 0.00 | 1.09 | 0.76 | 79 | 1016.6 |
| 20260502024011 | 1 | 301 | 0.0 | 0.0 | 0.00 | 1.09 | 0.76 | 78 | 1016.6 |
| 20260502023511 | 1 | 301 | 1.6 | 0.0 | 0.00 | 1.09 | 0.76 | 77 | 1016.4 |
| 20260502023011 | 1 | 294 | 0.0 | 0.0 | 0.00 | 1.09 | 0.76 | 76 | 1017.4 |
| 20260502022010 | 2 | 295 | 0.0 | 0.0 | 0.00 | 1.09 | 0.76 | 76 | 1017.4 |
| 20260502021511 | 2 | 212 | 0.0 | 0.0 | 0.00 | 1.09 | 0.76 | 74 | 1017.5 |
| 20260502021011 | 2 | 291 | 0.0 | 0.0 | 0.00 | 1.09 | 0.76 | 74 | 1017.4 |
| 20260502020511 | 2 | 291 | 0.0 | 0.0 | 0.00 | 1.09 | 0.76 | 73 | 1017.3 |
| 20260502020011 | 2 | 297 | 1.6 | 0.0 | 0.00 | 1.09 | 0.76 | 73 | 1017.3 |
| 20260502015511 | 2 | 276 | 1.6 | 0.0 | 0.00 | 1.14 | 0.76 | 72 | 1017.3 |
| 20260502015011 | 2 | 276 | 0.0 | 0.0 | 0.00 | 1.14 | 0.76 | 72 | 1017.2 |
| 20260502014511 | 2 | 276 | 1.6 | 0.0 | 0.00 | 1.14 | 0.76 | 71 | 1017.1 |
| 20260502014011 | 2 | 276 | 1.6 | 0.0 | 0.00 | 1.14 | 0.76 | 71 | 1017.1 |
| 20260502013011 | 3 | 316 | 0.0 | 0.0 | 0.00 | 1.14 | 0.76 | 73 | 1017.0 |
| 20260502012511 | 3 | 316 | 0.0 | 0.0 | 0.00 | 1.14 | 0.76 | 71 | 1016.8 |
| 20260502012011 | 3 | 316 | 0.0 | 0.0 | 0.00 | 1.14 | 0.76 | 70 | 1016.7 |
| 20260502011511 | 3 | 317 | 0.0 | 0.0 | 0.00 | 1.14 | 0.76 | 71 | 1016.7 |
| 20260502011011 | 3 | 304 | 0.0 | 0.0 | 0.00 | 1.14 | 0.76 | 68 | 1016.7 |
| 20260502010511 | 3 | 304 | 0.0 | 0.0 | 0.00 | 1.14 | 0.76 | 68 | 1016.6 |
| 20260502010011 | 4 | 304 | 0.0 | 0.0 | 0.00 | 1.14 | 0.76 | 66 | 1016.6 |
| 20260502005511 | 4 | 306 | 1.6 | 0.0 | 0.00 | 1.14 | 0.76 | 66 | 1016.6 |
| 20260502005011 | 5 | 274 | 1.6 | 0.0 | 0.00 | 1.14 | 0.76 | 66 | 1016.6 |
| 20260502004011 | 5 | 254 | 1.6 | 0.0 | 0.00 | 1.14 | 0.76 | 65 | 1016.5 |
| 20260502003511 | 5 | 304 | 3.2 | 0.0 | 0.00 | 1.14 | 0.76 | 64 | 1016.4 |
| 20260502003011 | 5 | 282 | 1.6 | 0.0 | 0.00 | 1.14 | 0.76 | 66 | 1016.4 |
| 20260502002511 | 5 | 277 | 1.6 | 0.0 | 0.00 | 1.14 | 0.76 | 65 | 1016.4 |
| 20260502001011 | 6 | 269 | 1.6 | 0.0 | 0.00 | 1.14 | 0.76 | 65 | 1016.4 |
| 20260502000511 | 6 | 301 | 0.0 | 0.0 | 0.00 | 1.14 | 0.76 | 64 | 1016.4 |
| 20260502000011 | 6 | 277 | 3.2 | 0.0 | 0.00 | 1.14 | 0.76 | 63 | 1016.3 |
| 20260501235511 | 6 | 315 | 0.0 | 0.0 | 0.00 | 1.14 | 0.76 | 61 | 1016.3 |
| 20260501235011 | 7 | 226 | 1.6 | 0.0 | 0.00 | 1.14 | 0.76 | 60 | 1016.2 |
| 20260501234511 | 7 | 326 | 4.8 | 0.0 | 0.00 | 1.14 | 0.76 | 58 | 1016.0 |
| 20260501234011 | 7 | 291 | 1.6 | 1.6 | 0.00 | 1.14 | 0.76 | 57 | 1016.1 |
| 20260501233511 | 8 | 293 | 4.8 | 1.6 | 0.00 | 1.14 | 0.76 | 54 | 1016.0 |
| 20260501233011 | 8 | 326 | 3.2 | 1.6 | 0.00 | 1.14 | 0.76 | 56 | 1016.0 |
| 20260501232511 | 8 | 270 | 3.2 | 1.6 | 0.00 | 1.14 | 0.76 | 53 | 1016.0 |
| 20260501232011 | 8 | 287 | 6.4 | 1.6 | 0.00 | 1.14 | 0.76 | 55 | 1016.0 |
| 20260501231511 | 8 | 259 | 4.8 | 1.6 | 0.00 | 1.14 | 0.76 | 52 | 1016.0 |
| 20260501230011 | 8 | 315 | 3.2 | 1.6 | 0.00 | 1.14 | 0.76 | 55 | 1016.0 |
| 20260501225511 | 10 | 322 | 6.4 | 1.6 | 0.00 | 1.14 | 0.76 | 53 | 1016.0 |
| 20260501225011 | 10 | 243 | 3.2 | 0.0 | 0.00 | 1.14 | 0.76 | 55 | 1015.9 |
| 20260501224511 | 9 | 332 | 4.8 | 0.0 | 0.00 | 1.14 | 0.76 | 53 | 1015.8 |
| 20260501224011 | 9 | 309 | 1.6 | 0.0 | 0.00 | 1.14 | 0.76 | 53 | 1015.8 |
| 20260501223511 | 10 | 21 | 4.8 | 0.0 | 0.00 | 1.14 | 0.76 | 55 | 1015.8 |
| 20260501223011 | 10 | 325 | 4.8 | 0.0 | 0.00 | 1.14 | 0.76 | 54 | 1015.8 |
| 20260501222511 | 10 | 287 | 1.6 | 1.6 | 0.00 | 1.14 | 0.76 | 56 | 1015.8 |
| 20260501222011 | 10 | 329 | 3.2 | 1.6 | 0.00 | 1.14 | 0.76 | 54 | 1015.8 |
| 20260501221011 | 10 | 288 | 6.4 | 1.6 | 0.00 | 1.14 | 0.76 | 51 | 1015.6 |
| 20260501215010 | 10 | 321 | 6.4 | 1.6 | 0.00 | 1.14 | 0.76 | 56 | 1015.5 |
| 20260501214510 | 10 | 274 | 1.6 | 1.6 | 0.00 | 1.14 | 0.76 | 58 | 1015.6 |
| 20260501214010 | 10 | 315 | 3.2 | 1.6 | 0.00 | 1.14 | 0.76 | 54 | 1015.6 |
| 20260501213510 | 10 | 295 | 3.2 | 1.6 | 0.00 | 1.14 | 0.76 | 55 | 1015.5 |
| 20260501213010 | 10 | 291 | 0.0 | 1.6 | 0.00 | 1.14 | 0.76 | 54 | 1015.4 |
| 20260501212510 | 11 | 329 | 8.0 | 1.6 | 0.00 | 1.14 | 0.76 | 51 | 1015.4 |
| 20260501211510 | 11 | 333 | 4.8 | 1.6 | 0.00 | 1.14 | 0.76 | 57 | 1015.3 |
| 20260501211010 | 11 | 207 | 4.8 | 1.6 | 0.00 | 1.14 | 0.76 | 56 | 1015.3 |
| 20260501210010 | 11 | 349 | 4.8 | 1.6 | 0.00 | 1.14 | 0.76 | 53 | 1015.2 |
| 20260501205510 | 10 | 295 | 3.2 | 1.6 | 0.00 | 1.14 | 0.76 | 59 | 1015.2 |
| 20260501205010 | 10 | 300 | 3.2 | 1.6 | 0.00 | 1.14 | 0.76 | 57 | 1015.2 |
| 20260501204510 | 10 | 289 | 4.8 | 1.6 | 0.00 | 1.14 | 0.76 | 58 | 1015.3 |
| 20260501204010 | 10 | 350 | 3.2 | 1.6 | 0.00 | 1.14 | 0.76 | 56 | 1015.2 |
| 20260501202510 | 10 | 256 | 3.2 | 0.0 | 0.00 | 1.14 | 0.76 | 60 | 1015.0 |
| 20260501202010 | 9 | 354 | 3.2 | 0.0 | 0.00 | 1.14 | 0.76 | 58 | 1015.1 |
| 20260501201510 | 9 | 231 | 3.2 | 1.6 | 0.00 | 1.14 | 0.76 | 60 | 1015.1 |
| 20260501201010 | 9 | 311 | 3.2 | 1.6 | 0.00 | 1.14 | 0.76 | 60 | 1015.2 |
| 20260501200510 | 9 | 276 | 4.8 | 1.6 | 0.00 | 1.14 | 0.76 | 61 | 1015.2 |
| 20260501200010 | 10 | 271 | 1.6 | 1.6 | 0.00 | 1.14 | 0.76 | 58 | 1015.2 |
| 20260501195510 | 10 | 314 | 4.8 | 0.0 | 0.00 | 1.14 | 0.76 | 59 | 1015.2 |
| 20260501195010 | 10 | 264 | 1.6 | 1.6 | 0.00 | 1.14 | 0.76 | 59 | 1015.0 |
| 20260501194510 | 10 | 273 | 3.2 | 1.6 | 0.00 | 1.14 | 0.76 | 60 | 1015.1 |
| 20260501193510 | 10 | 278 | 1.6 | 1.6 | 0.00 | 1.14 | 0.76 | 59 | 1015.0 |
| 20260501193010 | 10 | 240 | 4.8 | 1.6 | 0.00 | 1.14 | 0.76 | 61 | 1014.9 |
| 20260501192511 | 11 | 307 | 3.2 | 1.6 | 0.00 | 1.14 | 0.76 | 58 | 1014.9 |
| 20260501192010 | 11 | 314 | 3.2 | 1.6 | 0.00 | 1.14 | 0.76 | 61 | 1014.9 |
| 20260501191510 | 11 | 274 | 6.4 | 1.6 | 0.00 | 1.14 | 0.76 | 60 | 1014.9 |
| 20260501191010 | 11 | 307 | 3.2 | 1.6 | 0.00 | 1.14 | 0.76 | 63 | 1014.8 |
| 20260501190510 | 11 | 256 | 3.2 | 1.6 | 0.00 | 1.14 | 0.76 | 62 | 1014.8 |
| 20260501190010 | 11 | 263 | 4.8 | 0.0 | 0.00 | 1.14 | 0.76 | 65 | 1014.7 |
| 20260501185510 | 11 | 301 | 3.2 | 0.0 | 0.00 | 1.14 | 0.76 | 61 | 1014.7 |
| 20260501184510 | 11 | 352 | 1.6 | 1.6 | 0.00 | 1.14 | 0.76 | 60 | 1014.6 |
| 20260501184010 | 11 | 323 | 8.0 | 1.6 | 0.00 | 1.14 | 0.76 | 64 | 1014.5 |
| 20260501183510 | 11 | 320 | 3.2 | 1.6 | 0.00 | 1.14 | 0.76 | 65 | 1014.5 |
| 20260501183010 | 11 | 320 | 4.8 | 1.6 | 0.00 | 1.14 | 0.76 | 58 | 1014.5 |
| 20260501182510 | 11 | 290 | 3.2 | 1.6 | 0.00 | 1.14 | 0.76 | 61 | 1014.5 |
| 20260501182010 | 11 | 260 | 6.4 | 1.6 | 0.00 | 1.14 | 0.76 | 58 | 1014.4 |
| 20260501181510 | 11 | 349 | 8.0 | 1.6 | 0.00 | 1.14 | 0.76 | 59 | 1014.2 |
| 20260501181010 | 11 | 280 | 4.8 | 1.6 | 0.00 | 1.14 | 0.76 | 55 | 1014.3 |
| 20260501180510 | 11 | 317 | 4.8 | 1.6 | 0.00 | 1.14 | 0.76 | 59 | 1014.2 |
| 20260501180010 | 11 | 240 | 3.2 | 1.6 | 0.00 | 1.14 | 0.76 | 59 | 1014.2 |
| 20260501175510 | 11 | 313 | 4.8 | 0.0 | 0.00 | 1.14 | 0.76 | 65 | 1014.2 |
| 20260501175010 | 10 | 253 | 1.6 | 1.6 | 0.00 | 1.14 | 0.76 | 61 | 1014.2 |
| 20260501174510 | 10 | 77 | 4.8 | 1.6 | 0.00 | 1.14 | 0.76 | 59 | 1014.2 |
| 20260501174010 | 11 | 310 | 4.8 | 1.6 | 0.00 | 1.14 | 0.76 | 58 | 1014.1 |
| 20260501173510 | 11 | 323 | 3.2 | 1.6 | 0.00 | 1.14 | 0.76 | 57 | 1014.2 |
| 20260501172510 | 11 | 312 | 6.4 | 1.6 | 0.00 | 1.14 | 0.76 | 59 | 1014.1 |
| 20260501172010 | 11 | 298 | 4.8 | 1.6 | 0.00 | 1.14 | 0.76 | 61 | 1014.2 |
| 20260501171510 | 11 | 335 | 1.6 | 1.6 | 0.00 | 1.14 | 0.76 | 58 | 1014.1 |
| 20260501170510 | 11 | 127 | 3.2 | 0.0 | 0.00 | 1.14 | 0.76 | 61 | 1014.1 |
| 20260501170010 | 11 | 338 | 6.4 | 0.0 | 0.00 | 1.14 | 0.76 | 62 | 1014.1 |
| 20260501165510 | 11 | 295 | 1.6 | 0.0 | 0.00 | 1.14 | 0.76 | 62 | 1014.1 |
| 20260501165010 | 11 | 275 | 1.6 | 0.0 | 0.00 | 1.14 | 0.76 | 62 | 1014.1 |
| 20260501164510 | 11 | 340 | 1.6 | 1.6 | 0.00 | 1.14 | 0.76 | 62 | 1014.1 |
| 20260501164010 | 11 | 300 | 3.2 | 1.6 | 0.00 | 1.14 | 0.76 | 58 | 1014.0 |
| 20260501163510 | 11 | 280 | 3.2 | 0.0 | 0.00 | 1.14 | 0.76 | 62 | 1014.0 |
| 20260501163010 | 11 | 240 | 1.6 | 1.6 | 0.00 | 1.14 | 0.76 | 61 | 1014.1 |
| 20260501162510 | 10 | 294 | 3.2 | 1.6 | 0.00 | 1.14 | 0.76 | 64 | 1014.1 |
| 20260501161510 | 10 | 32 | 1.6 | 1.6 | 0.00 | 1.14 | 0.76 | 57 | 1014.2 |
| 20260501161010 | 10 | 304 | 4.8 | 1.6 | 0.00 | 1.14 | 0.76 | 61 | 1014.2 |
| 20260501160510 | 10 | 304 | 4.8 | 1.6 | 0.00 | 1.14 | 0.76 | 61 | 1014.2 |
| 20260501160010 | 10 | 64 | 3.2 | 1.6 | 0.00 | 1.14 | 0.76 | 62 | 1014.2 |
| 20260501155510 | 10 | 31 | 0.0 | 1.6 | 0.00 | 1.14 | 0.76 | 59 | 1014.2 |
| 20260501155010 | 9 | 236 | 1.6 | 1.6 | 0.00 | 1.14 | 0.76 | 64 | 1014.2 |
| 20260501154010 | 9 | 9 | 3.2 | 0.0 | 0.00 | 1.14 | 0.76 | 69 | 1014.2 |
| 20260501153511 | 9 | 326 | 3.2 | 0.0 | 0.00 | 1.14 | 0.76 | 70 | 1014.2 |
| 20260501153010 | 9 | 283 | 3.2 | 0.0 | 0.00 | 1.14 | 0.76 | 75 | 1014.1 |
| 20260501152010 | 9 | 256 | 1.6 | 0.0 | 0.00 | 1.14 | 0.76 | 71 | 1014.1 |
| 20260501151511 | 10 | 281 | 3.2 | 0.0 | 0.00 | 1.14 | 0.76 | 70 | 1014.1 |
| 20260501151010 | 10 | 294 | 1.6 | 0.0 | 0.00 | 1.14 | 0.76 | 68 | 1014.1 |
| 20260501150510 | 10 | 291 | 1.6 | 1.6 | 0.00 | 1.14 | 0.76 | 69 | 1014.0 |
| 20260501150010 | 10 | 298 | 3.2 | 1.6 | 0.00 | 1.14 | 0.76 | 74 | 1014.0 |